Spokane Fairchild, WA
on Saturday, February 23, 2013

Saturday
Previous Day Next Day
Daily Summary
 ActualAverage (KGEG)Record (KGEG)
Temperature
Mean Temperature °F / °C 34°F / 1°C  
Max Temperature 41°F / 5°C 42°F / 6°C 59°F / 15°C (1947)
Min Temperature 25°F / -4°C 27°F / -3°C 2°F / -16°C (1942)
Degree Days
Heating Degree Days 32 31  
Month to date heating degree days 746  
Since 1 July heating degree days 4679  
Cooling Degree Days 0 0  
Month to date cooling degree days 0  
Year to date cooling degree days 0  
Moisture
Dew Point 25°F / -4°C   
Average Humidity 78    
Maximum Humidity 93    
Minimum Humidity 57    
Precipitation
Precipitation 0.00 in / 0.00 cm 0.05 in / 1.27 cm 0.48 in / 1.22 cm (2009)
Month to date precipitation 1.08  
Year to date precipitation 2.87  
Snow
Snow 0.00 in / 0.00 cm 0.20 in / 0.51 cm 6.80 in / 17.27 cm (2011)
Month to date snowfall 5.8  
Since 1 July snowfall 39.3  
Snow Depth in / cm   
Wind
Wind Speed 16 mph / 26 km/h   
Max Wind Speed 22 mph / 35 km/h   
Max Gust Speed 29 mph / 47 km/h   
Visibility 10 miles / 16 kilometers   
Events Snow   

Key: T is trace of precipitation, MM is missing value
Source: NWS Daily Summary
Time(PST)TemperatureDew PointHumidity Pressure Visibility Wind DirectionWind SpeedGust SpeedPrecipitationEvents Conditions
12:44 AM 32.0°F / 0.0°C 24.8°F / -4.0°C 75% 29.67 in / 1004.6 hPa 10.0 miles / 16.1 kilometers SW 19.6 mph / 31.5 km/h 27.6 mph / 44.4 km/h N/A   Partly Cloudy
12:54 AM 32.0°F / 0.0°C 24.8°F / -4.0°C 75% 29.67 in / 1004.6 hPa 10.0 miles / 16.1 kilometers SW 21.9 mph / 35.2 km/h 26.5 mph / 42.6 km/h N/A Snow Light Snow
12:58 AM 32.0°F / 0.0°C 24.8°F / -4.0°C 75% 29.74 in / 1007.0 hPa 10.0 miles / 16.1 kilometers SW 20.7 mph / 33.3 km/h 28.8 mph / 46.3 km/h 0.00 in / 0.0 cm Snow Light Snow
1:28 AM 32.0°F / 0.0°C 24.8°F / -4.0°C 75% 29.69 in / 1005.3 hPa 10.0 miles / 16.1 kilometers SW 21.9 mph / 35.2 km/h 28.8 mph / 46.3 km/h N/A   Scattered Clouds
1:48 AM 32.0°F / 0.0°C 24.8°F / -4.0°C 75% 29.69 in / 1005.3 hPa 10.0 miles / 16.1 kilometers SW 19.6 mph / 31.5 km/h - N/A Snow Light Snow
1:58 AM 30.6°F / -0.8°C 24.1°F / -4.4°C 77% 29.76 in / 1007.7 hPa 10.0 miles / 16.1 kilometers SW 20.7 mph / 33.3 km/h 25.3 mph / 40.7 km/h 0.00 in / 0.0 cm Snow Light Snow
2:34 AM 30.2°F / -1.0°C 23.0°F / -5.0°C 75% 29.70 in / 1005.6 hPa 10.0 miles / 16.1 kilometers WSW 15.0 mph / 24.1 km/h - N/A   Clear
2:58 AM 29.8°F / -1.2°C 23.0°F / -5.0°C 76% 29.79 in / 1008.7 hPa 10.0 miles / 16.1 kilometers SW 18.4 mph / 29.6 km/h - 0.00 in / 0.0 cm   Scattered Clouds
3:03 AM 30.2°F / -1.0°C 23.0°F / -5.0°C 75% 29.72 in / 1006.3 hPa 10.0 miles / 16.1 kilometers SW 18.4 mph / 29.6 km/h - N/A Snow Light Snow
3:13 AM 28.4°F / -2.0°C 23.0°F / -5.0°C 80% 29.72 in / 1006.3 hPa 10.0 miles / 16.1 kilometers SW 18.4 mph / 29.6 km/h - N/A   Scattered Clouds
3:31 AM 28.4°F / -2.0°C 23.0°F / -5.0°C 80% 29.72 in / 1006.3 hPa 10.0 miles / 16.1 kilometers SW 18.4 mph / 29.6 km/h - N/A Snow Light Snow
3:58 AM 28.2°F / -2.1°C 22.6°F / -5.2°C 80% 29.81 in / 1009.2 hPa 10.0 miles / 16.1 kilometers SW 19.6 mph / 31.5 km/h - 0.00 in / 0.0 cm Snow Light Snow
4:23 AM 28.4°F / -2.0°C 23.0°F / -5.0°C 80% 29.74 in / 1007.0 hPa 10.0 miles / 16.1 kilometers SW 21.9 mph / 35.2 km/h 28.8 mph / 46.3 km/h N/A   Clear
4:35 AM 28.4°F / -2.0°C 23.0°F / -5.0°C 80% 29.74 in / 1007.0 hPa 10.0 miles / 16.1 kilometers SW 19.6 mph / 31.5 km/h - N/A Snow Light Snow
4:37 AM 28.4°F / -2.0°C 23.0°F / -5.0°C 80% 29.75 in / 1007.3 hPa 10.0 miles / 16.1 kilometers SW 19.6 mph / 31.5 km/h - N/A   Clear
4:58 AM 28.0°F / -2.2°C 23.4°F / -4.8°C 83% 29.83 in / 1010.1 hPa 10.0 miles / 16.1 kilometers SW 17.3 mph / 27.8 km/h - 0.00 in / 0.0 cm   Partly Cloudy
5:17 AM 28.4°F / -2.0°C 23.0°F / -5.0°C 80% 29.77 in / 1008.0 hPa 10.0 miles / 16.1 kilometers SW 16.1 mph / 25.9 km/h 23.0 mph / 37.0 km/h N/A Snow Light Snow
5:28 AM 28.4°F / -2.0°C 23.0°F / -5.0°C 80% 29.77 in / 1008.0 hPa 10.0 miles / 16.1 kilometers SW 17.3 mph / 27.8 km/h - N/A   Overcast
5:38 AM 28.4°F / -2.0°C 23.0°F / -5.0°C 80% 29.77 in / 1008.0 hPa 10.0 miles / 16.1 kilometers SW 16.1 mph / 25.9 km/h - N/A Snow Light Snow
5:50 AM 28.4°F / -2.0°C 24.8°F / -4.0°C 86% 29.79 in / 1008.7 hPa 10.0 miles / 16.1 kilometers SW 13.8 mph / 22.2 km/h - N/A   Overcast
5:58 AM 28.2°F / -2.1°C 24.1°F / -4.4°C 84% 29.86 in / 1010.9 hPa 10.0 miles / 16.1 kilometers SSW 17.3 mph / 27.8 km/h - 0.00 in / 0.0 cm   Overcast
6:58 AM 27.3°F / -2.6°C 23.5°F / -4.7°C 86% 29.89 in / 1012.1 hPa 10.0 miles / 16.1 kilometers SSW 15.0 mph / 24.1 km/h 20.7 mph / 33.3 km/h N/A   Partly Cloudy
7:02 AM 26.6°F / -3.0°C 23.0°F / -5.0°C 86% 29.82 in / 1009.7 hPa 10.0 miles / 16.1 kilometers SSW 11.5 mph / 18.5 km/h 20.7 mph / 33.3 km/h N/A   Partly Cloudy
7:11 AM 26.6°F / -3.0°C 23.0°F / -5.0°C 86% 29.83 in / 1010.0 hPa 10.0 miles / 16.1 kilometers SSW 12.7 mph / 20.4 km/h - N/A   Clear
7:39 AM 26.6°F / -3.0°C 24.8°F / -4.0°C 93% 29.84 in / 1010.4 hPa 10.0 miles / 16.1 kilometers SSW 17.3 mph / 27.8 km/h - N/A   Clear
7:57 AM 26.6°F / -3.0°C 24.8°F / -4.0°C 93% 29.85 in / 1010.7 hPa 10.0 miles / 16.1 kilometers SSW 16.1 mph / 25.9 km/h - N/A   Clear
7:58 AM 26.6°F / -3.0°C 24.8°F / -4.0°C 93% 29.92 in / 1013.2 hPa 10.0 miles / 16.1 kilometers SSW 17.3 mph / 27.8 km/h - 0.00 in / 0.0 cm   Clear
8:37 AM 28.4°F / -2.0°C 24.8°F / -4.0°C 86% 29.88 in / 1011.7 hPa 10.0 miles / 16.1 kilometers SW 17.3 mph / 27.8 km/h 25.3 mph / 40.7 km/h N/A   Clear
8:58 AM 29.5°F / -1.4°C 25.2°F / -3.8°C 84% 29.96 in / 1014.4 hPa 10.0 miles / 16.1 kilometers SW 16.1 mph / 25.9 km/h - N/A   Scattered Clouds
9:58 AM 30.6°F / -0.8°C 26.1°F / -3.3°C 83% 29.98 in / 1015.1 hPa 10.0 miles / 16.1 kilometers SW 16.1 mph / 25.9 km/h - N/A   Overcast
10:58 AM 32.2°F / 0.1°C 27.5°F / -2.5°C 83% 30.00 in / 1015.8 hPa 10.0 miles / 16.1 kilometers SW 13.8 mph / 22.2 km/h - N/A   Overcast
11:28 AM 35.6°F / 2.0°C 28.4°F / -2.0°C 75% 29.94 in / 1013.8 hPa 10.0 miles / 16.1 kilometers SW 15.0 mph / 24.1 km/h - N/A   Partly Cloudy
11:29 AM 35.6°F / 2.0°C 28.4°F / -2.0°C 75% 29.94 in / 1013.8 hPa 10.0 miles / 16.1 kilometers SW 13.8 mph / 22.2 km/h - N/A   Partly Cloudy
11:37 AM 35.6°F / 2.0°C 28.4°F / -2.0°C 75% 29.94 in / 1013.8 hPa 10.0 miles / 16.1 kilometers SW 16.1 mph / 25.9 km/h - N/A   Clear
11:38 AM 35.6°F / 2.0°C 28.4°F / -2.0°C 75% 29.94 in / 1013.8 hPa 10.0 miles / 16.1 kilometers SW 15.0 mph / 24.1 km/h - N/A   Clear
11:53 AM 35.6°F / 2.0°C 28.4°F / -2.0°C 75% 29.94 in / 1013.8 hPa 10.0 miles / 16.1 kilometers SW 17.3 mph / 27.8 km/h - N/A   Clear
11:57 AM 35.6°F / 2.0°C 28.4°F / -2.0°C 75% 29.94 in / 1013.8 hPa 10.0 miles / 16.1 kilometers SW 16.1 mph / 25.9 km/h - N/A   Clear
11:58 AM 35.6°F / 2.0°C 28.4°F / -2.0°C 75% 30.01 in / 1016.1 hPa 10.0 miles / 16.1 kilometers SW 16.1 mph / 25.9 km/h - 0.00 in / 0.0 cm   Clear
12:01 PM 35.6°F / 2.0°C 28.4°F / -2.0°C 75% 29.94 in / 1013.8 hPa 10.0 miles / 16.1 kilometers SW 17.3 mph / 27.8 km/h - N/A   Clear
12:11 PM 35.6°F / 2.0°C 28.4°F / -2.0°C 75% 29.94 in / 1013.8 hPa 10.0 miles / 16.1 kilometers SW 17.3 mph / 27.8 km/h - N/A   Clear
12:58 PM 39.2°F / 4.0°C 28.9°F / -1.7°C 67% 30.01 in / 1016.3 hPa 10.0 miles / 16.1 kilometers SW 12.7 mph / 20.4 km/h 20.7 mph / 33.3 km/h 0.00 in / 0.0 cm   Clear
1:22 PM 39.2°F / 4.0°C 28.4°F / -2.0°C 65% 29.96 in / 1014.4 hPa 10.0 miles / 16.1 kilometers West 15.0 mph / 24.1 km/h - N/A   Clear
1:47 PM 41.0°F / 5.0°C 26.6°F / -3.0°C 57% 29.96 in / 1014.4 hPa 10.0 miles / 16.1 kilometers WSW 13.8 mph / 22.2 km/h - N/A   Clear
1:58 PM 40.5°F / 4.7°C 27.3°F / -2.6°C 59% 30.03 in / 1016.8 hPa 10.0 miles / 16.1 kilometers West 15.0 mph / 24.1 km/h - 0.00 in / 0.0 cm   Clear
2:58 PM 40.5°F / 4.7°C 26.4°F / -3.1°C 57% 30.05 in / 1017.6 hPa 10.0 miles / 16.1 kilometers WSW 12.7 mph / 20.4 km/h - N/A   Clear
3:58 PM 40.3°F / 4.6°C 26.6°F / -3.0°C 58% 30.07 in / 1018.3 hPa 10.0 miles / 16.1 kilometers West 11.5 mph / 18.5 km/h - N/A   Clear
4:58 PM 38.5°F / 3.6°C 27.7°F / -2.4°C 65% 30.11 in / 1019.6 hPa 10.0 miles / 16.1 kilometers West 10.4 mph / 16.7 km/h - N/A   Overcast
5:58 PM 33.4°F / 0.8°C 26.6°F / -3.0°C 76% 30.14 in / 1020.4 hPa 10.0 miles / 16.1 kilometers SW 8.1 mph / 13.0 km/h - N/A   Clear
6:49 PM 33.8°F / 1.0°C 24.8°F / -4.0°C 70% 30.08 in / 1018.5 hPa 10.0 miles / 16.1 kilometers WSW 5.8 mph / 9.3 km/h - N/A   Clear
6:58 PM 34.3°F / 1.3°C 24.1°F / -4.4°C 66% 30.17 in / 1021.7 hPa 10.0 miles / 16.1 kilometers Variable 2.3 mph / 3.7 km/h - 0.00 in / 0.0 cm   Clear
7:03 PM 32.0°F / 0.0°C 24.8°F / -4.0°C 75% 30.09 in / 1018.8 hPa 10.0 miles / 16.1 kilometers East 3.5 mph / 5.6 km/h - N/A   Clear
7:46 PM 32.0°F / 0.0°C 24.8°F / -4.0°C 75% 30.10 in / 1019.2 hPa 10.0 miles / 16.1 kilometers SW 4.6 mph / 7.4 km/h - N/A   Clear
7:58 PM 31.1°F / -0.5°C 24.8°F / -4.0°C 77% 30.18 in / 1022.0 hPa 10.0 miles / 16.1 kilometers SE 2.3 mph / 3.7 km/h - 0.00 in / 0.0 cm   Clear
7:59 PM 32.0°F / 0.0°C 24.8°F / -4.0°C 75% 30.10 in / 1019.2 hPa 10.0 miles / 16.1 kilometers ESE 3.5 mph / 5.6 km/h - N/A   Clear
8:58 PM 30.9°F / -0.6°C 24.3°F / -4.3°C 76% 30.20 in / 1022.5 hPa 10.0 miles / 16.1 kilometers SW 5.8 mph / 9.3 km/h - 0.00 in / 0.0 cm   Clear
9:58 PM 28.6°F / -1.9°C 25.0°F / -3.9°C 86% 30.22 in / 1023.4 hPa 10.0 miles / 16.1 kilometers West 5.8 mph / 9.3 km/h - N/A   Clear
10:58 PM 27.9°F / -2.3°C 23.4°F / -4.8°C 83% 30.23 in / 1023.7 hPa 10.0 miles / 16.1 kilometers SW 4.6 mph / 7.4 km/h - N/A   Clear
11:03 PM 28.4°F / -2.0°C 23.0°F / -5.0°C 80% 30.15 in / 1020.9 hPa 10.0 miles / 16.1 kilometers SW 6.9 mph / 11.1 km/h - N/A   Clear
11:16 PM 26.6°F / -3.0°C 23.0°F / -5.0°C 86% 30.15 in / 1020.9 hPa 10.0 miles / 16.1 kilometers WSW 6.9 mph / 11.1 km/h - N/A   Clear
11:50 PM 26.6°F / -3.0°C 23.0°F / -5.0°C 86% 30.16 in / 1021.2 hPa 10.0 miles / 16.1 kilometers South 6.9 mph / 11.1 km/h - N/A   Clear
11:58 PM 25.9°F / -3.4°C 23.2°F / -4.9°C 90% 30.25 in / 1024.2 hPa 10.0 miles / 16.1 kilometers South 6.9 mph / 11.1 km/h - 0.00 in / 0.0 cm   Clear
Moon Phase
Feb. 23 Feb. 25 Mar. 04 Mar. 11 Mar. 19
Sunrise:06:41 AM (PST) Moon Rise:03:38 PM (PST)2/23
Sunset:05:26 PM (PST) Moon Set:05:12 AM (PST)2/23

Copyright © 2014 The Weather Underground, Inc.